Wind_Speed
25 25 26 26 26 25 25 26 27 27 26 27 27 26 26 26 27 27 27 28 28 29 29 30 31 32 32 33 35 35 35 36 36 37 37 37 37 38 38 38 37 38 38
25 25 25 25 25 25 26 27 27 27 27 27 27 27 27 27 27 27 27 27 28 28 28 30 30 30 31 32 33 33 34 34 34 33 34 35 36 36 36 36 36 37 36
25 24 24 24 24 25 25 25 25 26 26 26 27 27 27 27 27 27 28 28 27 28 28 28 28 29 29 30 30 31 31 31 31 32 32 33 33 34 34 34 34 34 34
24 24 24 24 24 24 24 24 24 24 24 25 26 26 26 26 26 26 26 27 27 27 27 26 27 27 28 28 29 29 29 30 30 31 31 31 31 31 32 32 32 33 33
23 23 22 22 22 22 22 22 22 22 23 24 24 24 24 24 24 25 25 25 24 24 25 25 25 25 26 27 27 27 27 28 29 29 29 29 29 30 30 31 31 31 32
22 21 20 20 19 19 19 19 19 20 20 21 22 23 23 23 23 23 22 22 22 22 23 24 24 24 25 25 25 25 25 26 26 26 26 27 27 28 29 29 29 29 29
20 19 18 17 16 16 16 16 16 17 18 19 19 20 21 22 22 22 22 21 22 22 22 22 22 23 23 23 23 23 23 23 23 24 24 25 25 26 27 27 27 27 26
16 16 15 15 15 15 14 14 14 15 16 17 18 18 19 19 19 19 19 20 21 21 21 21 21 21 22 22 22 22 21 22 22 23 23 24 24 24 24 25 24 23 23
14 13 12 13 13 13 13 13 14 13 13 14 15 16 16 17 17 17 18 19 20 20 20 20 20 21 20 20 20 21 21 22 22 22 22 22 22 22 22 22 22 21 21
11 11 10 10 11 11 10 11 11 11 10 11 11 12 14 14 15 16 17 17 17 17 18 19 19 19 18 18 19 19 19 20 20 20 20 20 19 19 19 19 19 19 18
9 9 9 9 8 8 8 8 9 8 8 9 9 10 11 11 12 13 13 14 14 14 15 15 16 15 16 16 16 17 17 17 17 17 17 17 17 17 16 16 15 15 14
7 7 6 7 7 7 6 6 6 7 7 7 7 8 9 9 9 10 11 10 11 11 12 13 13 14 13 14 14 14 14 15 15 15 15 15 14 14 13 12 11 11 11
4 4 3 3 3 3 4 4 5 5 5 5 4 5 6 6 7 7 8 9 9 10 10 11 12 12 12 12 12 13 13 13 13 13 12 12 11 11 10 9 9 9 8
3 3 3 3 3 3 3 3 3 2 2 2 2 3 4 4 4 5 5 6 7 8 9 9 9 9 10 10 11 11 11 11 11 10 10 9 9 8 8 7 7 7 6
4 4 4 3 3 3 3 4 3 3 2 2 2 2 2 2 3 3 4 5 6 7 7 7 7 8 8 8 8 8 8 8 8 8 8 7 7 6 5 5 5 5 4
5 5 5 5 5 5 5 5 5 4 4 4 4 4 4 3 3 3 4 4 4 4 4 5 5 6 6 6 6 6 6 6 6 6 5 5 4 4 4 4 3 2 2
7 7 7 7 7 7 6 7 7 7 7 7 6 6 6 5 5 5 5 5 5 5 4 5 4 4 4 4 5 5 5 4 4 3 3 2 2 2 2 1 1 1 1
10 9 9 9 9 10 10 10 10 9 9 9 9 8 8 8 8 7 7 7 6 6 6 5 5 5 5 4 4 4 4 3 2 2 1 1 1 1 1 1 1 2 2
12 12 12 12 12 12 12 12 12 12 12 11 11 11 10 10 10 9 9 9 8 8 7 7 7 6 6 6 6 5 5 4 4 3 3 3 3 3 2 2 2 3 3
15 15 15 15 15 15 14 14 14 14 14 14 14 13 13 12 12 12 11 11 10 10 10 9 9 9 8 8 7 7 6 6 5 5 4 4 4 3 3 3 3 4 4
17 17 17 17 17 17 17 16 16 16 16 16 16 16 15 15 15 14 14 13 13 12 12 12 11 10 10 9 9 8 7 7 6 6 5 4 4 4 4 4 4 5 5
18 18 18 18 18 18 18 18 18 18 18 17 17 17 17 17 17 16 16 15 14 14 13 13 12 11 11 10 9 9 8 7 7 6 5 5 5 5 5 5 6 6 6
18 18 18 18 18 18 18 18 18 18 18 18 18 18 18 18 18 17 16 16 16 15 14 14 13 12 12 11 10 10 9 8 7 6 6 6 6 6 7 7 7 7 8
18 18 19 19 18 18 18 18 18 18 18 17 17 17 17 17 17 16 16 16 15 15 15 14 14 13 12 12 11 10 9 9 8 8 7 7 7 8 8 8 9 9 9
18 18 18 18 17 17 17 17 17 17 17 17 16 16 16 16 15 15 15 15 14 14 14 13 13 13 12 12 11 10 10 9 9 8 8 9 9 9 10 10 10 11 11
16 17 17 17 17 17 17 17 17 16 16 16 16 16 15 15 15 15 14 14 14 13 13 12 12 12 11 11 11 10 10 10 10 10 10 11 11 11 12 12 12 13 14
Wind_Direction
280 280 279 277 276 273 269 265 263 261 260 260 260 258 257 256 255 253 254 255 255 253 251 251 252 254 255 256 257 259 261 262 263 266 267 269 271 272 275 275 277 279 281
282 280 280 278 277 275 271 269 266 262 259 258 258 256 255 255 253 253 253 254 254 253 254 254 254 256 257 259 259 260 262 263 264 266 267 269 270 272 275 276 278 279 281
282 280 279 279 277 275 271 269 266 262 259 258 255 254 253 254 254 253 253 253 254 254 256 256 256 257 259 259 260 261 262 264 265 266 267 269 271 272 274 277 278 279 281
282 280 280 279 276 273 272 270 267 262 259 256 254 254 253 254 254 254 254 254 254 255 257 259 259 260 261 262 263 262 263 266 268 268 269 270 271 273 275 276 278 280 281
282 280 277 277 275 272 271 270 266 261 257 254 253 253 253 254 255 256 255 256 256 258 259 261 261 262 262 263 263 262 264 267 268 269 270 271 273 274 275 276 279 280 281
281 279 277 276 275 271 271 271 266 262 259 256 254 254 256 257 257 257 256 257 258 258 259 260 261 261 263 264 264 264 266 268 268 269 271 272 274 275 276 277 279 280 281
282 278 276 276 273 270 272 271 268 265 261 257 256 254 255 256 255 255 256 258 258 259 259 260 261 261 263 265 267 268 269 269 270 272 273 275 276 277 277 278 279 280 281
284 279 278 275 272 272 272 271 271 268 262 259 255 252 253 254 254 254 255 257 257 258 259 259 262 265 267 268 268 269 270 271 272 274 275 277 279 279 280 280 279 280 280
284 279 277 277 275 273 272 271 272 270 266 262 255 252 253 256 256 257 258 258 257 259 260 260 263 266 267 266 267 269 270 271 273 276 278 280 280 281 281 281 279 279 278
286 280 279 280 277 275 272 273 271 269 265 261 258 258 257 260 257 256 258 259 259 261 262 263 264 266 268 269 271 272 273 275 277 279 280 280 282 284 284 283 281 280 280
287 281 277 278 281 280 277 275 272 270 271 266 263 262 262 266 264 261 264 266 264 263 265 266 267 270 273 273 275 276 278 279 279 280 280 282 283 284 283 282 282 282 283
292 289 283 282 281 279 278 278 277 279 277 267 264 267 273 277 275 273 270 267 265 266 268 270 270 271 273 276 277 281 284 284 284 284 285 286 285 284 284 283 282 283 284
315 304 296 300 299 301 301 299 300 292 285 275 268 278 283 286 285 282 275 269 270 272 273 273 273 273 275 281 286 287 287 285 286 288 287 287 286 285 285 283 282 282 281
8 5 3 4 356 349 343 337 337 324 318 307 301 304 302 297 288 286 282 281 280 281 282 281 281 283 286 288 290 291 289 288 289 290 291 291 288 286 285 282 280 281 282
32 33 37 41 28 23 24 20 18 18 22 18 15 9 4 352 334 326 323 313 304 295 290 291 293 297 299 296 296 296 293 291 290 292 293 293 293 290 287 284 284 285 285
49 48 51 51 48 44 38 33 37 45 48 45 41 39 35 25 15 3 352 347 340 334 326 318 313 311 311 311 307 305 302 298 296 295 295 295 290 287 289 288 289 292 296
58 58 60 58 56 57 57 58 61 63 60 55 53 51 46 43 39 30 23 18 13 7 1 356 350 343 338 333 328 325 323 318 315 312 310 304 300 305 306 303 315 344 349
65 68 67 66 67 69 71 71 69 67 64 63 61 58 55 52 49 45 42 38 35 33 30 25 19 14 8 5 6 6 5 7 14 21 25 24 22 26 40 49 42 19 3
72 73 73 73 72 72 73 72 69 67 66 64 61 59 57 55 52 50 50 49 48 46 42 38 36 35 36 36 35 37 42 48 53 56 56 58 61 62 55 45 27 10 357
75 75 76 75 74 74 73 71 70 69 67 65 64 62 61 60 59 58 57 55 53 50 49 49 50 50 49 49 51 53 56 60 63 64 64 65 63 54 43 30 13 1 351
77 76 76 76 76 75 73 72 71 70 69 67 66 65 65 64 64 63 61 60 58 57 55 55 55 55 55 55 56 58 60 62 64 63 62 60 52 38 27 13 359 350 344
78 76 76 76 75 74 73 71 70 70 70 69 68 67 66 65 65 64 63 62 60 58 56 55 55 55 56 57 57 58 59 59 57 54 50 43 33 20 7 358 351 346 341
77 76 76 76 75 73 72 71 71 71 71 70 68 67 66 65 64 63 62 60 59 58 57 57 56 56 56 55 55 54 53 50 47 42 35 25 15 5 357 351 345 341 338
76 75 75 74 73 73 72 71 71 70 69 68 67 66 64 63 62 61 59 57 56 56 55 55 54 53 52 51 50 48 46 43 39 33 25 16 7 359 354 349 343 339 335
77 75 74 73 73 72 71 70 69 69 68 66 65 63 61 60 59 57 55 53 51 50 48 47 47 47 46 44 42 38 34 29 24 17 9 1 354 349 344 340 336 332 329
78 76 74 73 72 70 69 69 68 67 65 64 62 61 59 57 54 52 49 47 45 43 42 40 39 37 34 31 27 22 17 12 5 359 353 348 344 339 335 330 327 324 322
Height
5748 5747 5746 5745 5745 5744 5745 5745 5746 5746 5747 5747 5748 5749 5750 5751 5752 5753 5754 5756 5757 5758 5760 5761 5762 5763 5764 5765 5765 5766 5767 5767 5767 5767 5766 5766 5766 5765 5764 5764 5763 5762 5761
5741 5740 5739 5738 5737 5737 5737 5737 5737 5737 5738 5739 5740 5741 5743 5744 5745 5746 5747 5748 5750 5751 5752 5753 5754 5755 5755 5756 5757 5757 5757 5757 5758 5757 5757 5757 5757 5756 5755 5755 5754 5752 5751
5734 5732 5731 5731 5730 5730 5729 5729 5729 5730 5730 5731 5732 5733 5735 5736 5737 5739 5740 5741 5742 5743 5744 5745 5745 5746 5747 5747 5748 5748 5749 5749 5749 5749 5748 5748 5748 5747 5747 5746 5745 5743 5742
5727 5726 5725 5724 5723 5722 5722 5721 5721 5722 5723 5724 5725 5726 5727 5729 5730 5731 5732 5733 5734 5735 5736 5737 5737 5738 5739 5739 5740 5740 5740 5740 5740 5740 5740 5740 5739 5739 5738 5737 5736 5735 5734
5720 5719 5718 5717 5716 5715 5715 5714 5714 5715 5715 5716 5717 5719 5720 5721 5723 5724 5725 5726 5727 5728 5728 5729 5730 5731 5731 5732 5733 5733 5733 5733 5733 5732 5732 5732 5731 5731 5730 5729 5728 5727 5726
5713 5712 5711 5710 5709 5709 5709 5708 5708 5708 5709 5710 5711 5712 5713 5714 5716 5717 5718 5719 5720 5721 5722 5723 5723 5724 5725 5725 5725 5725 5725 5725 5725 5725 5725 5724 5724 5723 5722 5721 5720 5720 5719
5707 5706 5706 5705 5704 5704 5703 5703 5703 5703 5703 5704 5705 5706 5708 5709 5710 5711 5712 5713 5714 5715 5716 5717 5717 5718 5718 5718 5718 5718 5718 5718 5718 5718 5718 5717 5716 5716 5715 5714 5713 5712 5711
5702 5701 5701 5700 5700 5699 5699 5699 5698 5698 5698 5699 5700 5701 5702 5703 5704 5705 5706 5707 5708 5709 5710 5710 5711 5711 5712 5712 5712 5712 5712 5712 5712 5711 5711 5710 5709 5708 5708 5707 5706 5705 5704
5698 5697 5697 5696 5696 5695 5695 5695 5695 5695 5695 5695 5695 5696 5697 5698 5699 5700 5701 5702 5703 5703 5704 5705 5705 5706 5706 5706 5706 5706 5706 5706 5706 5705 5705 5704 5703 5702 5701 5701 5700 5699 5699
5694 5694 5693 5693 5692 5692 5692 5692 5692 5692 5692 5692 5692 5693 5693 5694 5695 5695 5697 5697 5698 5698 5699 5700 5700 5700 5700 5700 5701 5701 5701 5700 5700 5699 5699 5698 5697 5696 5696 5695 5695 5694 5694
5691 5691 5690 5690 5690 5690 5690 5689 5689 5689 5689 5689 5690 5690 5690 5691 5691 5692 5692 5693 5693 5694 5695 5695 5696 5696 5696 5696 5696 5696 5696 5695 5695 5694 5694 5693 5693 5692 5691 5691 5690 5690 5690
5689 5689 5688 5688 5688 5688 5688 5688 5688 5687 5687 5687 5688 5688 5688 5688 5689 5689 5689 5689 5690 5691 5691 5692 5692 5692 5692 5692 5692 5692 5691 5691 5690 5690 5689 5689 5688 5688 5687 5687 5687 5686 5686
5688 5688 5687 5687 5687 5687 5687 5687 5686 5686 5686 5686 5686 5686 5687 5687 5686 5687 5687 5687 5688 5688 5688 5689 5689 5689 5689 5689 5688 5688 5687 5687 5687 5686 5686 5685 5685 5684 5684 5684 5683 5683 5683
5688 5688 5687 5687 5687 5687 5686 5686 5686 5686 5686 5686 5686 5685 5685 5685 5685 5685 5685 5686 5686 5686 5686 5686 5686 5686 5685 5685 5685 5685 5684 5684 5684 5683 5683 5682 5682 5682 5681 5681 5681 5681 5681
5689 5688 5688 5688 5687 5687 5687 5686 5686 5686 5686 5686 5685 5685 5685 5685 5685 5684 5684 5684 5684 5684 5684 5684 5684 5683 5683 5683 5682 5682 5682 5681 5681 5681 5680 5680 5680 5680 5679 5679 5679 5679 5679
5690 5689 5689 5688 5688 5688 5687 5687 5687 5686 5686 5686 5685 5685 5685 5685 5684 5684 5684 5684 5683 5683 5683 5682 5682 5682 5681 5681 5681 5680 5680 5679 5679 5679 5678 5678 5678 5678 5678 5678 5678 5678 5677
5691 5691 5690 5690 5689 5689 5689 5688 5688 5688 5687 5687 5686 5686 5686 5685 5685 5685 5684 5684 5683 5683 5682 5682 5681 5681 5681 5680 5680 5679 5679 5678 5678 5677 5677 5677 5677 5677 5677 5677 5677 5677 5677
5694 5693 5693 5692 5692 5691 5691 5690 5690 5689 5689 5688 5688 5688 5687 5687 5686 5686 5685 5684 5684 5683 5683 5682 5682 5681 5680 5680 5679 5679 5678 5678 5677 5677 5677 5677 5677 5677 5677 5677 5677 5676 5676
5697 5696 5696 5695 5694 5694 5693 5693 5693 5692 5692 5691 5690 5690 5689 5688 5688 5687 5686 5686 5685 5684 5684 5683 5682 5682 5681 5680 5679 5679 5678 5678 5678 5678 5678 5677 5677 5677 5677 5677 5677 5676 5676
5701 5700 5699 5699 5698 5697 5697 5696 5696 5695 5695 5694 5693 5692 5692 5691 5690 5689 5689 5688 5687 5686 5686 5685 5684 5683 5682 5681 5681 5680 5680 5679 5679 5679 5679 5678 5678 5678 5678 5677 5677 5676 5675
5706 5705 5704 5703 5702 5702 5701 5700 5700 5699 5698 5698 5697 5696 5695 5694 5693 5693 5692 5691 5690 5689 5688 5687 5686 5685 5684 5684 5683 5682 5682 5681 5681 5680 5680 5680 5679 5679 5678 5677 5677 5676 5675
5710 5709 5708 5708 5707 5706 5705 5705 5704 5703 5702 5702 5701 5700 5699 5698 5697 5696 5695 5694 5693 5692 5691 5690 5689 5688 5687 5686 5685 5684 5684 5683 5683 5682 5682 5681 5680 5679 5678 5677 5676 5675 5674
5715 5714 5713 5712 5712 5711 5710 5709 5708 5708 5707 5706 5705 5705 5704 5703 5702 5701 5699 5698 5697 5696 5694 5693 5692 5691 5690 5689 5688 5687 5686 5685 5684 5684 5683 5682 5681 5680 5679 5677 5676 5675 5673
5720 5719 5718 5717 5716 5716 5715 5714 5713 5712 5711 5711 5710 5709 5708 5707 5706 5705 5704 5703 5701 5700 5698 5697 5696 5694 5693 5692 5691 5689 5688 5687 5686 5685 5684 5683 5682 5680 5679 5677 5676 5674 5672
5724 5724 5723 5722 5721 5720 5719 5718 5717 5717 5716 5715 5714 5713 5712 5711 5710 5709 5708 5706 5705 5703 5702 5700 5699 5698 5696 5695 5693 5692 5691 5689 5688 5686 5685 5683 5682 5680 5678 5676 5675 5673 5671
5729 5728 5727 5726 5725 5725 5724 5723 5722 5721 5720 5719 5718 5717 5716 5715 5714 5712 5711 5710 5708 5706 5705 5703 5702 5700 5698 5697 5695 5694 5692 5690 5688 5687 5685 5683 5681 5679 5677 5675 5673 5671 5668